Flag for U.S.A. Weather past 2 weeks in Independence, Missouri, U.S.A.

Now
48 °F

Partly sunny.


Feels Like: 45 °F
Forecast: 33 / 47 °F
Wind: 6 mph from Northwest

Location: Lee's Summit Municipal Airport

Current Time: Mar 26, 2015 at 7:26:42 PM

Latest Report: Mar 26, 2015 at 6:53 PM


Visibility: 10 mi

Pressure: 30.08 "Hg

Humidity: 43%

Dew point: 26 °F

Location of IndependenceLocation

Historic Weather in Independence — Graph

°F

Independence temperature yesterday

Maximum temperature yesterday: 55 °F (at 1:53 PM)
Minimum temperature yesterday: 42 °F (at 1:53 AM)
Average temperature yesterday: 46 °F

Past Weeks' High & Low Weather Summary

 TemperatureHumidityPressure
High81 °F (Mar 16, 4:53 PM)97% (Mar 18, 9:53 PM)30.37 "Hg (Mar 18, 9:53 PM)
Low34 °F (Mar 26, 7:53 AM)17% (Mar 15, 4:53 PM)29.77 "Hg (Mar 24, 4:53 PM)
Average52 °F60%30.12 "Hg
* Reported Mar 11 5:53 PM — Mar 26 5:53 PM, Independence, Weather by CustomWeather, © 2015

Note: Actual official high and low records may vary slightly from our data, if they occured in-between our weather recording intervals... More about our weather records

Advertising

Independence weather history for previous 24 hours

 ConditionsComfort  
Time TempWeatherWind HumidityBarometerVisibility
5:53 PM
Thu, Mar 26
50 °FSunny.10 mph39%30.09 "Hg10 mi
4:53 PM51 °FSunny.8 mph38%30.10 "Hg10 mi
3:53 PM50 °FSunny.7 mph38%30.12 "Hg10 mi
2:53 PM50 °FSunny.12 mph43%30.14 "Hg10 mi
1:53 PM48 °FSunny.10 mph43%30.16 "Hg10 mi
12:53 PM46 °FSunny.13 mph44%30.18 "Hg10 mi
11:53 AM44 °FSunny.13 mph45%30.20 "Hg10 mi
10:53 AM42 °FSunny.13 mph49%30.22 "Hg10 mi
9:53 AM40 °FSunny.15 mph55%30.23 "Hg10 mi
8:53 AM37 °FSunny.10 mph70%30.23 "Hg10 mi
7:53 AM34 °FClear.7 mph82%30.23 "Hg10 mi
6:53 AM35 °FClear.9 mph78%30.20 "Hg10 mi
5:53 AM35 °FClear.10 mph82%30.17 "Hg10 mi
4:53 AM37 °FClear.9 mph79%30.15 "Hg10 mi
3:53 AM38 °FClear.9 mph83%30.14 "Hg10 mi
2:53 AM39 °FClear.13 mph79%30.12 "Hg10 mi
1:53 AM40 °FClear.12 mph83%30.12 "Hg10 mi
12:53 AM41 °FMostly cloudy.12 mph86%30.13 "Hg10 mi
11:53 PM
Wed, Mar 25
42 °FLight rain. Overcast.15 mph85%30.13 "Hg10 mi
10:53 PM43 °FLow clouds.14 mph89%30.12 "Hg10 mi
9:53 PM43 °FPassing clouds.13 mph89%30.10 "Hg10 mi
8:53 PM45 °FLight rain. Overcast.16 mph80%30.11 "Hg10 mi
7:53 PM47 °FLight rain. Overcast.13 mph74%30.08 "Hg10 mi
Weather by CustomWeather, © 2015

See weather overviewHow to use our weather pages